Location: Unspecified
(0.0000°N, 0.0000°E)
Time: 00:06:58
(UTC+00:00)

COSMOS 2452 - Pass Details

Date: 17 May 2026
Orbit: 1481 x 1507 km, 82.5° (Epoch: 10 June)

Event Time Altitude Azimuth Distance (km) Brightness Sun altitude
Rises 03:37:41 0° 338° (NNW) 4,598 ? -32.5°
Reaches altitude 10° 03:40:51 10° 330° (NNW) 3,617 ? -31.8°
Enters shadow 03:43:34 21° 317° (NW) 2,873 ? -31.1°
